Tracking 32407 objects as of 5-Dec-2025
HD Live streaming from Space Station
objects crossing your sky now

STARLINK-30813

Track STARLINK-30813 now!
10-day predictions
STARLINK-30813 is classified as:


NORAD ID: 58213
Int'l Code: 2023-170H
Perigee: 565.4 km
Apogee: 567.1 km
Inclination: 43.0 °
Period: 95.8 minutes
Semi major axis: 6937 km
RCS: Unknown
Launch date: November 3, 2023
Source: United States (US)
Launch site: AIR FORCE EASTERN TEST RANGE (AFETR)
Your satellite tracking list
Your tracking list is empty




NASA's NSSDC Master Catalog

Two Line Element Set (TLE):
1 58213U 23170H   25339.31812148 -.00003216  00000-0 -22313-3 0  9990
2 58213  43.0019 348.7019 0001170 273.0465  87.0244 15.02526457116084
Source of the keplerian elements: AFSPC